Regional Weather Roundup
Issued by NWS Little Rock, AR

Home | Current Version | Previous Version | Graphics & Text | Print | Product List | Glossary On
Versions: 1 2 3 4 5 6 7 8 9 10 11 12 13 14 15 16 17 18 19 20 21 22 23 24 25 26 27
000
ASUS44 KLZK 230805
RWRLZK

WEATHER ROUNDUP FOR ARKANSAS
NATIONAL WEATHER SERVICE LITTLE ROCK AR
300 AM CDT TUE AUG 23 2016

NOTE: "FAIR" INDICATES FEW OR NO CLOUDS BELOW 12,000 FEET WITH NO
SIGNIFICANT WEATHER AND/OR OBSTRUCTIONS TO VISIBILITY.

ARZ001-003-010-029-230900-
NORTHWEST ARKANSAS

CITY           SKY/WX    TMP DP  RH WIND       PRES   REMARKS
FAYETTEVILLE   CLOUDY    71  69  93 S8        30.11F
FORT SMITH     MOCLDY    73  69  87 NE5       30.09S
HARRISON       CLOUDY    68  66  93 CALM      30.14S
BENTONVILLE    PTCLDY    70  63  78 S3        30.12S
ROGERS         PTCLDY    69  66  90 SE5       30.13S
SILOAM SPGS    PTCLDY    72  63  73 S7        30.12S
HIGHFILL       PTCLDY    70  68  93 S5        30.11F
$$

ARZ004-005-016-230900-
NORTH CENTRAL ARKANSAS

CITY           SKY/WX    TMP DP  RH WIND       PRES   REMARKS
BATESVILLE     MOCLDY    72  68  88 NE5       30.13S
FLIPPIN        MOCLDY    70  64  83 CALM      30.11S
MTN HOME       PTCLDY    69  66  90 SE3       30.13S
$$

ARZ040-041-230900-
WEST CENTRAL ARKANSAS

CITY           SKY/WX    TMP DP  RH WIND       PRES   REMARKS
MENA           CLOUDY    75  73  94 CALM      30.13S
MOUNT IDA      MOCLDY    72  70  93 CALM      30.10F FOG
$$

ARZ009-017-025-026-028-230900-
NORTHEAST ARKANSAS

CITY           SKY/WX    TMP DP  RH WIND       PRES   REMARKS
CORNING          N/A     72  68  88 E3        30.15S
JONESBORO      CLOUDY    69  67  93 NE3       30.14R
NEWPORT        PTCLDY    70  70 100 CALM      30.14R
WALNUT RIDGE   PTCLDY    70  64  83 NE5       30.13S
BLYTHEVILLE    PTCLDY    70  65  84 SE5       30.15S
$$

ARZ022-023-033-042-044-230900-
CENTRAL ARKANSAS

CITY           SKY/WX    TMP DP  RH WIND       PRES   REMARKS
LITTLE ROCK    CLOUDY    77  72  84 S6        30.13S
N LITTLE ROCK    N/A     74  72  93 S3        30.10F
JACKSONVILLE   MOCLDY    73  73 100 E2        30.12S
SEARCY         MOCLDY    73  73 100 S3        30.14F
HOT SPRINGS    PTCLDY    73  70  90 CALM      30.12F
RUSSELLVILLE   MOCLDY    73  72  96 CALM      30.10F
$$

ARZ036-230900-
EAST ARKANSAS

CITY           SKY/WX    TMP DP  RH WIND       PRES   REMARKS
WEST MEMPHIS   PTCLDY    71  70  96 S5        30.14R
$$

ARZ050-053-066-070-073-230900-
SOUTHWEST ARKANSAS

CITY           SKY/WX    TMP DP  RH WIND       PRES   REMARKS
ARKADELPHIA    FAIR      72  72 100 CALM      30.12F FOG
CAMDEN         PTCLDY    70  68  94 CALM      30.14S FOG
TEXARKANA      CLOUDY    70  70 100 CALM      30.12F
EL DORADO      MOCLDY    71  71 100 CALM      30.14S
DE QUEEN       PTCLDY    74  74 100 CALM      30.09F FOG
$$

ARZ056-057-069-230900-
SOUTHEAST ARKANSAS

CITY           SKY/WX    TMP DP  RH WIND       PRES   REMARKS
PINE BLUFF     CLOUDY    71  69  93 CALM      30.14S
STUTTGART      CLOUDY    73  70  88 S6        30.14S
MONTICELLO     CLOUDY    73  70  90 CALM      30.14R

$$






USA.gov is the U.S. government's official web portal to all federal, state and local government web resources and services.